When you browse on this site, cookies collect data to enhance your experience and personalize the content and advertising you see.
Visit our Privacy Policy to learn more. By continuing to use the site, you agree to this use of cookies and data.
  • In United Kingdom
  • List of Countries
  • For 7 days
  • Water Temperature
  • Satellite Maps
  • Weather Map
  • Weather Widgets
  • user-avatar
    Login

    Hourly Weather Naiham

    Today, 24 July, Wednesday

    Time Temperature Precipitation Wind Pressure Humidity
    00:00 +23°C° 0 mm 1 mps 701 mmHg 96%
    01:00 +23°C° 0 mm 1 mps 701 mmHg 96%
    02:00 +23°C° 0 mm 1 mps 701 mmHg 96%
    03:00 +23°C° 0 mm 1 mps 700 mmHg 96%
    04:00 +23°C° 0 mm 1 mps 700 mmHg 95%
    05:00 +24°C° 0 mm 1 mps 700 mmHg 94%
    06:00 +22°C° 0 mm 0 mps 701 mmHg 92%
    07:00 +25°C° 0 mm 1 mps 701 mmHg 87%
    08:00 +27°C° 0 mm 1 mps 702 mmHg 79%
    09:00 +28°C° 0 mm 1 mps 702 mmHg 71%
    10:00 +30°C° 0 mm 1 mps 703 mmHg 63%
    11:00 +30°C° 0.2 mm 1 mps 702 mmHg 65%
    12:00 +29°C° 0.2 mm 1 mps 702 mmHg 68%
    13:00 +29°C° 0.2 mm 1 mps 701 mmHg 70%
    14:00 +29°C° 0.8 mm 1 mps 701 mmHg 74%
    15:00 +29°C° 0.8 mm 1 mps 701 mmHg 78%
    16:00 +30°C° 0.8 mm 1 mps 700 mmHg 82%
    17:00 +28°C° 0.6 mm 1 mps 700 mmHg 86%
    18:00 +25°C° 0.6 mm 0 mps 700 mmHg 91%
    19:00 +23°C° 0.6 mm 0 mps 701 mmHg 95%
    20:00 +25°C° 0 mm 1 mps 701 mmHg 96%
    21:00 +24°C° 0 mm 1 mps 702 mmHg 96%
    22:00 +24°C° 0 mm 1 mps 702 mmHg 97%
    23:00 +24°C° 0 mm 1 mps 702 mmHg 97%

    Tomorrow, 25 July, Thursday

    Time Temperature Precipitation Wind Pressure Humidity
    00:00 +23°C° 0 mm 1 mps 702 mmHg 97%
    01:00 +23°C° 0 mm 1 mps 702 mmHg 97%
    02:00 +23°C° 0 mm 1 mps 702 mmHg 97%
    03:00 +23°C° 0 mm 1 mps 702 mmHg 97%
    04:00 +23°C° 0 mm 1 mps 702 mmHg 96%
    05:00 +23°C° 0 mm 1 mps 702 mmHg 95%
    06:00 +24°C° 0 mm 1 mps 702 mmHg 93%
    07:00 +24°C° 0 mm 1 mps 703 mmHg 91%
    08:00 +27°C° 0 mm 1 mps 703 mmHg 79%
    09:00 +30°C° 0 mm 1 mps 704 mmHg 67%
    10:00 +32°C° 0 mm 1 mps 704 mmHg 54%
    11:00 +32°C° 0.6 mm 1 mps 704 mmHg 61%
    12:00 +31°C° 0.6 mm 1 mps 703 mmHg 69%
    13:00 +31°C° 0.6 mm 1 mps 702 mmHg 76%
    14:00 +31°C° 1.6 mm 1 mps 702 mmHg 79%
    15:00 +28°C° 1.6 mm 0 mps 701 mmHg 83%
    16:00 +28°C° 1.6 mm 0 mps 701 mmHg 86%
    17:00 +26°C° 0.7 mm 0 mps 701 mmHg 89%
    18:00 +25°C° 0.7 mm 0 mps 701 mmHg 92%
    19:00 +23°C° 0.7 mm 0 mps 701 mmHg 95%
    20:00 +23°C° 0 mm 0 mps 702 mmHg 95%
    21:00 +22°C° 0 mm 0 mps 702 mmHg 96%
    22:00 +22°C° 0 mm 0 mps 703 mmHg 97%
    23:00 +24°C° 0 mm 1 mps 702 mmHg 97%

    Day after tomorrow, 26 July, Friday

    Time Temperature Precipitation Wind Pressure Humidity
    00:00 +23°C° 0 mm 1 mps 702 mmHg 97%
    01:00 +23°C° 0 mm 1 mps 702 mmHg 97%
    02:00 +23°C° 0 mm 1 mps 702 mmHg 97%
    03:00 +23°C° 0 mm 1 mps 702 mmHg 97%
    04:00 +23°C° 0 mm 1 mps 701 mmHg 97%
    05:00 +23°C° 0 mm 1 mps 702 mmHg 95%
    06:00 +24°C° 0 mm 1 mps 702 mmHg 93%
    07:00 +24°C° 0 mm 1 mps 702 mmHg 92%
    08:00 +27°C° 0 mm 1 mps 703 mmHg 78%
    09:00 +30°C° 0 mm 1 mps 703 mmHg 65%
    10:00 +33°C° 0 mm 1 mps 704 mmHg 52%
    11:00 +33°C° 0 mm 1 mps 703 mmHg 50%
    12:00 +32°C° 0 mm 0 mps 703 mmHg 48%
    13:00 +33°C° 0 mm 0 mps 702 mmHg 47%
    14:00 +32°C° 0.2 mm 0 mps 701 mmHg 52%
    15:00 +31°C° 0.2 mm 0 mps 701 mmHg 57%
    16:00 +33°C° 0.2 mm 1 mps 700 mmHg 62%
    17:00 +29°C° 0.4 mm 0 mps 700 mmHg 71%
    18:00 +27°C° 0.4 mm 0 mps 700 mmHg 79%
    19:00 +24°C° 0.4 mm 0 mps 700 mmHg 88%
    20:00 +24°C° 0 mm 0 mps 701 mmHg 90%
    21:00 +25°C° 0 mm 1 mps 702 mmHg 91%
    22:00 +25°C° 0 mm 1 mps 702 mmHg 93%
    23:00 +24°C° 0.1 mm 1 mps 702 mmHg 93%

    27 July, Saturday

    Time Temperature Precipitation Wind Pressure Humidity
    00:00 +24°C° 0.1 mm 1 mps 702 mmHg 93%
    01:00 +24°C° 0.1 mm 1 mps 701 mmHg 93%
    02:00 +24°C° 0 mm 1 mps 701 mmHg 93%
    03:00 +23°C° 0 mm 1 mps 701 mmHg 93%
    04:00 +23°C° 0 mm 1 mps 701 mmHg 93%
    05:00 +24°C° 0 mm 1 mps 701 mmHg 90%
    06:00 +24°C° 0 mm 1 mps 701 mmHg 88%
    07:00 +25°C° 0 mm 1 mps 702 mmHg 85%
    08:00 +28°C° 0 mm 1 mps 702 mmHg 73%
    09:00 +31°C° 0 mm 1 mps 703 mmHg 61%
    10:00 +34°C° 0 mm 1 mps 703 mmHg 49%
    11:00 +35°C° 0 mm 1 mps 703 mmHg 46%
    12:00 +34°C° 0 mm 0 mps 703 mmHg 42%
    13:00 +36°C° 0 mm 0 mps 702 mmHg 39%
    14:00 +34°C° 0 mm 0 mps 702 mmHg 46%
    15:00 +33°C° 0 mm 0 mps 701 mmHg 53%
    16:00 +31°C° 0 mm 0 mps 700 mmHg 61%
    17:00 +29°C° 0.3 mm 0 mps 700 mmHg 68%
    18:00 +27°C° 0.3 mm 0 mps 700 mmHg 76%
    19:00 +26°C° 0.3 mm 0 mps 701 mmHg 84%
    20:00 +25°C° 0 mm 0 mps 701 mmHg 87%
    21:00 +24°C° 0 mm 0 mps 702 mmHg 90%
    22:00 +23°C° 0 mm 0 mps 703 mmHg 93%
    23:00 +23°C° 0.5 mm 0 mps 702 mmHg 94%

    28 July, Sunday

    Time Temperature Precipitation Wind Pressure Humidity
    00:00 +23°C° 0.5 mm 0 mps 702 mmHg 96%
    01:00 +22°C° 0.5 mm 0 mps 702 mmHg 97%
    02:00 +22°C° 1.4 mm 0 mps 702 mmHg 97%
    03:00 +22°C° 1.4 mm 0 mps 701 mmHg 98%
    04:00 +23°C° 1.4 mm 1 mps 701 mmHg 98%
    05:00 +24°C° 0.5 mm 1 mps 702 mmHg 98%
    06:00 +24°C° 0.5 mm 1 mps 702 mmHg 98%
    07:00 +24°C° 0.5 mm 1 mps 702 mmHg 97%
    08:00 +25°C° 0 mm 0 mps 703 mmHg 84%
    09:00 +28°C° 0 mm 0 mps 703 mmHg 70%
    10:00 +31°C° 0 mm 0 mps 704 mmHg 57%
    11:00 +32°C° 0.1 mm 0 mps 703 mmHg 53%
    12:00 +33°C° 0.1 mm 0 mps 703 mmHg 48%
    13:00 +35°C° 0.1 mm 0 mps 702 mmHg 44%
    14:00 +35°C° 0.9 mm 1 mps 702 mmHg 55%
    15:00 +33°C° 0.9 mm 1 mps 701 mmHg 66%
    16:00 +31°C° 0.9 mm 1 mps 700 mmHg 77%
    17:00 +30°C° 0.8 mm 1 mps 701 mmHg 83%
    18:00 +28°C° 0.8 mm 1 mps 701 mmHg 90%
    19:00 +24°C° 0.8 mm 0 mps 701 mmHg 96%
    20:00 +24°C° 0.5 mm 0 mps 702 mmHg 96%
    21:00 +24°C° 0.5 mm 0 mps 702 mmHg 97%
    22:00 +23°C° 0.5 mm 0 mps 703 mmHg 98%
    23:00 +23°C° 1.4 mm 0 mps 703 mmHg 98%

    29 July, Monday

    Time Temperature Precipitation Wind Pressure Humidity
    00:00 +23°C° 1.4 mm 0 mps 702 mmHg 99%
    01:00 +22°C° 1.4 mm 0 mps 702 mmHg 99%
    02:00 +22°C° 0.9 mm 0 mps 702 mmHg 99%
    03:00 +22°C° 0.9 mm 0 mps 702 mmHg 99%
    04:00 +22°C° 0.9 mm 0 mps 702 mmHg 99%
    05:00 +22°C° 1.3 mm 0 mps 702 mmHg 99%
    06:00 +22°C° 1.3 mm 0 mps 703 mmHg 99%
    07:00 +24°C° 1.3 mm 1 mps 703 mmHg 98%
    08:00 +27°C° 0.3 mm 1 mps 703 mmHg 89%
    09:00 +29°C° 0.3 mm 1 mps 704 mmHg 79%
    10:00 +31°C° 0.3 mm 1 mps 704 mmHg 69%
    11:00 +33°C° 0.1 mm 1 mps 704 mmHg 60%
    12:00 +33°C° 0.1 mm 0 mps 703 mmHg 51%
    13:00 +35°C° 0.1 mm 0 mps 703 mmHg 41%
    14:00 +34°C° 0 mm 0 mps 702 mmHg 43%
    15:00 +34°C° 0 mm 0 mps 702 mmHg 44%
    16:00 +35°C° 0 mm 1 mps 701 mmHg 46%
    17:00 +32°C° 0.3 mm 1 mps 701 mmHg 59%
    18:00 +30°C° 0.3 mm 1 mps 701 mmHg 73%
    19:00 +27°C° 0.3 mm 1 mps 701 mmHg 87%
    20:00 +24°C° 0.8 mm 0 mps 701 mmHg 90%
    21:00 +24°C° 0.8 mm 0 mps 702 mmHg 93%
    22:00 +23°C° 0.8 mm 0 mps 703 mmHg 97%
    23:00 +23°C° 1.6 mm 0 mps 702 mmHg 97%
    Show more